User: anonymous   Login
Location: Mentone
(34.5413°N, 85.5351°W)
Time: 21:53:06
(UTC-05:00)
Language:

Centaur AC-72 - Orbit

View from above orbital plane
View from above orbital plane
View from above satellite
View from above satellite

Ground track
Ground track

The orbit data is extracted from the following two-line orbital elements,

1 21907U 92013B   16125.19972204 -.00000018  00000-0  00000+0 0  9992
2 21907  19.6246  39.4692 6948329 274.4742 131.2256  2.25605557199043
Epoch (UTC): 04 May 2016 04:47:35
Eccentricity: 0.6948329
inclination: 19.6246°
perigee height: 1116 km
apogee height: 35241 km
right ascension of ascending node: 39.4692°
argument of perigee: 274.4742°
revolutions per day: 2.25605557
mean anomaly at epoch: 131.2256°
orbit number at epoch: 19904

The dashed part of the orbit path shows where the satellite is in the earth's shadow,  

DLR